FHV1143 KMEM-KCLT

Flight info

Callsign FHV1143
Flight time 1h 6m
Altitude 35000
Route GOETZ7 DIYAB SYI TAZZA FILPZ4
Aircraft A321/M-SDE3FGHIRWY/LB1

Departure

Time 2026-05-05 01:30
Airport Memphis International Airport (KMEM)

Arrival

Time 2026-05-05 02:37
Airport Charlotte Douglas International Airport (KCLT)
Time Latitude Longitude Altitude Speed Heading
2026-05-05 01:08 35.04179 -89.97990 331 ft 0 kts 222°
2026-05-05 01:20 35.04190 -89.97980 330 ft 2 kts 193°
2026-05-05 01:20 35.04206 -89.97982 330 ft 2 kts 141°
2026-05-05 01:20 35.04214 -89.97991 330 ft 1 kts 137°
2026-05-05 01:21 35.04215 -89.97992 330 ft 0 kts 137°
2026-05-05 01:24 35.04197 -89.97963 330 ft 9 kts 111°
2026-05-05 01:24 35.04192 -89.97837 328 ft 18 kts 90°
2026-05-05 01:24 35.04252 -89.97741 329 ft 16 kts
2026-05-05 01:24 35.04379 -89.97748 327 ft 20 kts
2026-05-05 01:25 35.04525 -89.97749 327 ft 24 kts 359°
2026-05-05 01:25 35.04710 -89.97754 326 ft 27 kts 359°
2026-05-05 01:25 35.04897 -89.97758 328 ft 26 kts
2026-05-05 01:25 35.05076 -89.97760 325 ft 25 kts 358°
2026-05-05 01:26 35.05246 -89.97764 327 ft 24 kts 359°
2026-05-05 01:26 35.05392 -89.97781 326 ft 13 kts 356°
2026-05-05 01:26 35.05439 -89.97746 328 ft 0 kts 65°
2026-05-05 01:26 35.05440 -89.97743 328 ft 0 kts 65°
2026-05-05 01:27 35.05440 -89.97742 328 ft 1 kts 66°
2026-05-05 01:27 35.05444 -89.97664 322 ft 11 kts 103°
2026-05-05 01:27 35.05391 -89.97617 324 ft 9 kts 177°
2026-05-05 01:27 35.05380 -89.97616 325 ft 0 kts 178°
2026-05-05 01:29 35.05373 -89.97616 324 ft 6 kts 179°
2026-05-05 01:29 35.05087 -89.97611 322 ft 76 kts 179°
2026-05-05 01:29 35.04364 -89.97597 324 ft 130 kts 179°
2026-05-05 01:29 35.03313 -89.97570 335 ft 169 kts 180°
2026-05-05 01:30 35.02125 -89.97555 838 ft 170 kts 180°
2026-05-05 01:30 35.00952 -89.97517 1463 ft 167 kts 178°
2026-05-05 01:30 34.99778 -89.97443 1971 ft 172 kts 177°
2026-05-05 01:30 34.98510 -89.97303 2108 ft 193 kts 171°
2026-05-05 01:31 34.97169 -89.96723 2213 ft 215 kts 160°
2026-05-05 01:31 34.95702 -89.95999 2418 ft 240 kts 161°
2026-05-05 01:31 34.94146 -89.95089 2897 ft 257 kts 144°
2026-05-05 01:31 34.93088 -89.93284 3571 ft 272 kts 111°
2026-05-05 01:32 34.92810 -89.90953 4310 ft 280 kts 98°
2026-05-05 01:32 34.92688 -89.88568 5044 ft 284 kts 96°
2026-05-05 01:32 34.92603 -89.86148 5779 ft 288 kts 93°
2026-05-05 01:32 34.92902 -89.83708 6492 ft 295 kts 73°
2026-05-05 01:33 34.93807 -89.81438 7193 ft 300 kts 59°
2026-05-05 01:33 34.94892 -89.79239 7900 ft 304 kts 60°
2026-05-05 01:33 34.95979 -89.77000 8631 ft 309 kts 61°
2026-05-05 01:33 34.97067 -89.74727 9377 ft 312 kts 61°
2026-05-05 01:34 34.98154 -89.72428 10078 ft 314 kts 61°
2026-05-05 01:34 34.99247 -89.70094 10636 ft 323 kts 61°
2026-05-05 01:34 35.00397 -89.67634 10771 ft 345 kts 60°
2026-05-05 01:34 35.01623 -89.65013 10899 ft 367 kts 60°
2026-05-05 01:35 35.02920 -89.62243 11098 ft 384 kts 60°
2026-05-05 01:35 35.04254 -89.59387 11601 ft 390 kts 60°
2026-05-05 01:35 35.05599 -89.56493 12191 ft 394 kts 60°
2026-05-05 01:35 35.06959 -89.53574 12793 ft 397 kts 59°
2026-05-05 01:36 35.08339 -89.50633 13421 ft 401 kts 59°
2026-05-05 01:36 35.09731 -89.47673 14027 ft 403 kts 59°
2026-05-05 01:36 35.11126 -89.44692 14610 ft 407 kts 59°
2026-05-05 01:36 35.12535 -89.41676 15207 ft 409 kts 59°
2026-05-05 01:37 35.13951 -89.38649 15774 ft 412 kts 59°
2026-05-05 01:37 35.15377 -89.35600 16322 ft 415 kts 58°
2026-05-05 01:37 35.16809 -89.32528 16838 ft 417 kts 58°
2026-05-05 01:37 35.18244 -89.29439 17332 ft 420 kts 58°
2026-05-05 01:38 35.19688 -89.26324 17823 ft 422 kts 58°
2026-05-05 01:38 35.21118 -89.23170 18299 ft 426 kts 62°
2026-05-05 01:38 35.22219 -89.19794 18756 ft 430 kts 71°
2026-05-05 01:38 35.23122 -89.16286 19206 ft 434 kts 71°
2026-05-05 01:39 35.24025 -89.12752 19643 ft 437 kts 71°
2026-05-05 01:39 35.24695 -89.09117 20055 ft 441 kts 80°
2026-05-05 01:39 35.25166 -89.05397 20448 ft 444 kts 80°
2026-05-05 01:39 35.25642 -89.01704 20849 ft 447 kts 79°
2026-05-05 01:40 35.26141 -88.97887 21251 ft 450 kts 79°
2026-05-05 01:40 35.26638 -88.94097 21650 ft 452 kts 79°
2026-05-05 01:40 35.27127 -88.90331 22028 ft 456 kts 79°
2026-05-05 01:40 35.27624 -88.86488 22429 ft 459 kts 79°
2026-05-05 01:41 35.28120 -88.82623 22825 ft 461 kts 79°
2026-05-05 01:41 35.28614 -88.78735 23195 ft 464 kts 79°
2026-05-05 01:41 35.29110 -88.74822 23555 ft 466 kts 79°
2026-05-05 01:41 35.29608 -88.70893 23909 ft 469 kts 79°
2026-05-05 01:42 35.30108 -88.66937 24256 ft 471 kts 79°
2026-05-05 01:42 35.30613 -88.62959 24610 ft 474 kts 79°
2026-05-05 01:42 35.31119 -88.58966 24948 ft 476 kts 79°
2026-05-05 01:42 35.31626 -88.54948 25272 ft 479 kts 79°
2026-05-05 01:43 35.32134 -88.50903 25593 ft 482 kts 79°
2026-05-05 01:43 35.32643 -88.46841 25903 ft 484 kts 80°
2026-05-05 01:43 35.33151 -88.42753 26227 ft 486 kts 80°
2026-05-05 01:43 35.33654 -88.38648 26506 ft 489 kts 80°
2026-05-05 01:44 35.34161 -88.34524 26787 ft 491 kts 79°
2026-05-05 01:44 35.34671 -88.30380 27061 ft 493 kts 79°
2026-05-05 01:44 35.35185 -88.26224 27332 ft 494 kts 79°
2026-05-05 01:44 35.35702 -88.22048 27576 ft 497 kts 79°
2026-05-05 01:45 35.36222 -88.17849 27848 ft 499 kts 79°
2026-05-05 01:45 35.36740 -88.13636 28115 ft 501 kts 79°
2026-05-05 01:45 35.37259 -88.09400 28374 ft 504 kts 80°
2026-05-05 01:45 35.37772 -88.05159 28736 ft 503 kts 80°
2026-05-05 01:46 35.38280 -88.00929 29071 ft 502 kts 80°
2026-05-05 01:46 35.38787 -87.96697 29394 ft 502 kts 80°
2026-05-05 01:46 35.39293 -87.92464 29752 ft 501 kts 80°
2026-05-05 01:46 35.39802 -87.88245 30114 ft 500 kts 80°
2026-05-05 01:47 35.40309 -87.84038 30448 ft 499 kts 80°
2026-05-05 01:47 35.40812 -87.79828 30775 ft 499 kts 80°
2026-05-05 01:47 35.41309 -87.75624 31090 ft 498 kts 80°
2026-05-05 01:47 35.41805 -87.71418 31401 ft 498 kts 80°
2026-05-05 01:48 35.42298 -87.67219 31724 ft 498 kts 80°
2026-05-05 01:48 35.42792 -87.63022 32039 ft 497 kts 79°
2026-05-05 01:48 35.43287 -87.58825 32337 ft 497 kts 79°
2026-05-05 01:48 35.43783 -87.54631 32653 ft 497 kts 79°
2026-05-05 01:49 35.44273 -87.50436 32949 ft 497 kts 79°
2026-05-05 01:49 35.44760 -87.46247 33241 ft 496 kts 79°
2026-05-05 01:49 35.45246 -87.42056 33532 ft 496 kts 79°
2026-05-05 01:49 35.45732 -87.37869 33811 ft 496 kts 79°
2026-05-05 01:50 35.46215 -87.33681 34106 ft 496 kts 79°
2026-05-05 01:50 35.46696 -87.29499 34366 ft 496 kts 79°
2026-05-05 01:50 35.47177 -87.25306 34600 ft 496 kts 79°
2026-05-05 01:50 35.47658 -87.21114 34813 ft 496 kts 79°
2026-05-05 01:51 35.48137 -87.16915 34927 ft 497 kts 79°
2026-05-05 01:51 35.48612 -87.12717 34946 ft 497 kts 79°
2026-05-05 01:51 35.49556 -87.04332 34951 ft 496 kts 79°
2026-05-05 01:52 35.50502 -86.95950 34950 ft 495 kts 79°
2026-05-05 01:52 35.51435 -86.87575 34963 ft 495 kts 80°
2026-05-05 01:53 35.52360 -86.79199 34963 ft 495 kts 80°
2026-05-05 01:53 35.53283 -86.70825 34962 ft 495 kts 80°
2026-05-05 01:54 35.54194 -86.62449 34965 ft 496 kts 80°
2026-05-05 01:54 35.55101 -86.54061 34969 ft 495 kts 81°
2026-05-05 01:55 35.56005 -86.45680 34974 ft 495 kts 81°
2026-05-05 01:55 35.57039 -86.37333 34974 ft 494 kts 78°
2026-05-05 01:56 35.58326 -86.29049 34976 ft 493 kts 77°
2026-05-05 01:56 35.59622 -86.20777 34975 ft 493 kts 78°
2026-05-05 01:57 35.60852 -86.12492 34973 ft 492 kts 78°
2026-05-05 01:57 35.62034 -86.04208 34973 ft 492 kts 78°
2026-05-05 01:58 35.63219 -85.95928 34973 ft 492 kts 78°
2026-05-05 01:58 35.64412 -85.87651 34984 ft 491 kts 79°
2026-05-05 01:59 35.65600 -85.79372 34986 ft 491 kts 79°
2026-05-05 01:59 35.66785 -85.71102 34987 ft 491 kts 79°
2026-05-05 02:00 35.67961 -85.62837 34984 ft 491 kts 79°
2026-05-05 02:00 35.69130 -85.54565 34982 ft 491 kts 79°
2026-05-05 02:01 35.70281 -85.46286 34984 ft 492 kts 79°
2026-05-05 02:01 35.71431 -85.37995 34992 ft 491 kts 79°
2026-05-05 02:02 35.72581 -85.29713 34995 ft 490 kts 79°
2026-05-05 02:02 35.73726 -85.21438 34996 ft 490 kts 79°
2026-05-05 02:03 35.74868 -85.13162 34994 ft 491 kts 79°
2026-05-05 02:03 35.75999 -85.04876 34993 ft 491 kts 79°
2026-05-05 02:04 35.77123 -84.96594 34994 ft 490 kts 79°
2026-05-05 02:04 35.78244 -84.88317 35005 ft 490 kts 79°
2026-05-05 02:05 35.79363 -84.80027 35006 ft 492 kts 79°
2026-05-05 02:05 35.80481 -84.71717 35008 ft 492 kts 79°
2026-05-05 02:06 35.81564 -84.63385 35012 ft 493 kts 81°
2026-05-05 02:06 35.82292 -84.55049 35023 ft 493 kts 85°
2026-05-05 02:07 35.82774 -84.46620 35019 ft 494 kts 86°
2026-05-05 02:07 35.83276 -84.38180 35023 ft 494 kts 85°
2026-05-05 02:08 35.83868 -84.29750 35025 ft 493 kts 84°
2026-05-05 02:08 35.84480 -84.21330 35014 ft 493 kts 84°
2026-05-05 02:09 35.85067 -84.12910 35008 ft 493 kts 85°
2026-05-05 02:09 35.85625 -84.04477 35007 ft 494 kts 85°
2026-05-05 02:10 35.86184 -83.96042 35007 ft 494 kts 85°
2026-05-05 02:10 35.86656 -83.88970 35009 ft 494 kts 85°
2026-05-05 02:11 35.87220 -83.80529 35008 ft 494 kts 85°
2026-05-05 02:11 35.87768 -83.72097 35005 ft 493 kts 85°
2026-05-05 02:12 35.88570 -83.59468 34998 ft 493 kts 85°
2026-05-05 02:13 35.89086 -83.51041 35006 ft 493 kts 88°
2026-05-05 02:13 35.88472 -83.42657 35011 ft 491 kts 105°
2026-05-05 02:14 35.86654 -83.34534 34933 ft 496 kts 107°
2026-05-05 02:14 35.85729 -83.30414 34164 ft 503 kts 107°
2026-05-05 02:14 35.84803 -83.26245 33239 ft 501 kts 107°
2026-05-05 02:14 35.83901 -83.22161 32746 ft 488 kts 107°
2026-05-05 02:15 35.83011 -83.18144 32183 ft 484 kts 107°
2026-05-05 02:15 35.82118 -83.14152 31623 ft 482 kts 106°
2026-05-05 02:15 35.81234 -83.10185 31083 ft 479 kts 106°
2026-05-05 02:15 35.80358 -83.06237 30542 ft 477 kts 106°
2026-05-05 02:16 35.79487 -83.02306 30009 ft 474 kts 106°
2026-05-05 02:16 35.78626 -82.98403 29471 ft 471 kts 106°
2026-05-05 02:16 35.77767 -82.94524 28946 ft 468 kts 105°
2026-05-05 02:16 35.76908 -82.90675 28419 ft 465 kts 106°
2026-05-05 02:17 35.76048 -82.86855 27908 ft 461 kts 106°
2026-05-05 02:17 35.75194 -82.83065 27399 ft 458 kts 106°
2026-05-05 02:17 35.74347 -82.79304 26896 ft 454 kts 106°
2026-05-05 02:17 35.73505 -82.75570 26409 ft 451 kts 106°
2026-05-05 02:18 35.72670 -82.71870 25928 ft 447 kts 106°
2026-05-05 02:18 35.71840 -82.68199 25513 ft 441 kts 106°
2026-05-05 02:18 35.71023 -82.64607 25240 ft 431 kts 106°
2026-05-05 02:18 35.70218 -82.61083 24552 ft 424 kts 106°
2026-05-05 02:19 35.69434 -82.57640 24119 ft 412 kts 105°
2026-05-05 02:19 35.68671 -82.54292 23694 ft 401 kts 105°
2026-05-05 02:19 35.67929 -82.51033 23260 ft 390 kts 106°
2026-05-05 02:19 35.67197 -82.47838 22847 ft 387 kts 106°
2026-05-05 02:20 35.66468 -82.44658 22422 ft 385 kts 106°
2026-05-05 02:20 35.65743 -82.41499 22001 ft 383 kts 106°
2026-05-05 02:20 35.65021 -82.38355 21582 ft 381 kts 106°
2026-05-05 02:20 35.64299 -82.35231 21148 ft 379 kts 106°
2026-05-05 02:21 35.63579 -82.32123 20725 ft 377 kts 106°
2026-05-05 02:21 35.62862 -82.29031 20291 ft 375 kts 106°
2026-05-05 02:21 35.62149 -82.25952 19860 ft 374 kts 106°
2026-05-05 02:21 35.61442 -82.22888 19424 ft 371 kts 106°
2026-05-05 02:22 35.60737 -82.19840 19010 ft 370 kts 107°
2026-05-05 02:22 35.60033 -82.16805 18584 ft 368 kts 107°
2026-05-05 02:22 35.59338 -82.13798 18168 ft 365 kts 107°
2026-05-05 02:22 35.58654 -82.10820 17699 ft 360 kts 107°
2026-05-05 02:23 35.57977 -82.07891 17298 ft 361 kts 107°
2026-05-05 02:23 35.57290 -82.04886 16875 ft 360 kts 105°
2026-05-05 02:23 35.56702 -82.01953 16479 ft 358 kts 103°
2026-05-05 02:23 35.56155 -81.98934 16067 ft 357 kts 103°
2026-05-05 02:24 35.55641 -81.95965 15665 ft 355 kts 102°
2026-05-05 02:24 35.55134 -81.93009 15266 ft 353 kts 103°
2026-05-05 02:24 35.54620 -81.90061 14859 ft 352 kts 103°
2026-05-05 02:24 35.54104 -81.87168 14467 ft 351 kts 103°
2026-05-05 02:25 35.53576 -81.84249 14059 ft 350 kts 103°
2026-05-05 02:25 35.53045 -81.81338 13661 ft 349 kts 103°
2026-05-05 02:25 35.52518 -81.78465 13467 ft 340 kts 104°
2026-05-05 02:25 35.52004 -81.75669 13248 ft 333 kts 103°
2026-05-05 02:26 35.51496 -81.72921 12992 ft 328 kts 103°
2026-05-05 02:26 35.50995 -81.70196 12626 ft 327 kts 103°
2026-05-05 02:26 35.50496 -81.67475 12220 ft 327 kts 103°
2026-05-05 02:26 35.49997 -81.64761 11866 ft 325 kts 103°
2026-05-05 02:27 35.49502 -81.62058 11491 ft 324 kts 103°
2026-05-05 02:27 35.49153 -81.59347 11189 ft 320 kts 92°
2026-05-05 02:27 35.49289 -81.56630 10819 ft 318 kts 82°
2026-05-05 02:27 35.49568 -81.53956 10570 ft 314 kts 83°
2026-05-05 02:28 35.49827 -81.51308 10354 ft 312 kts 85°
2026-05-05 02:28 35.49641 -81.48698 10036 ft 305 kts 108°
2026-05-05 02:28 35.48963 -81.46239 9656 ft 304 kts 112°
2026-05-05 02:28 35.48231 -81.43818 9299 ft 302 kts 112°
2026-05-05 02:29 35.47502 -81.41414 8953 ft 299 kts 112°
2026-05-05 02:29 35.46785 -81.39035 8590 ft 296 kts 112°
2026-05-05 02:29 35.46076 -81.36666 8239 ft 295 kts 112°
2026-05-05 02:29 35.45382 -81.34315 7881 ft 291 kts 112°
2026-05-05 02:30 35.44703 -81.31980 7492 ft 290 kts 112°
2026-05-05 02:30 35.44036 -81.29657 7114 ft 288 kts 112°
2026-05-05 02:30 35.43382 -81.27353 6827 ft 283 kts 112°
2026-05-05 02:30 35.42742 -81.25079 6399 ft 283 kts 112°
2026-05-05 02:31 35.42107 -81.22804 5999 ft 281 kts 112°
2026-05-05 02:31 35.41488 -81.20540 5608 ft 280 kts 112°
2026-05-05 02:31 35.40875 -81.18276 5243 ft 279 kts 112°
2026-05-05 02:31 35.40271 -81.16030 5002 ft 276 kts 112°
2026-05-05 02:32 35.39674 -81.13798 4996 ft 276 kts 112°
2026-05-05 02:32 35.39070 -81.11562 5006 ft 277 kts 112°
2026-05-05 02:32 35.38461 -81.09318 4997 ft 278 kts 112°
2026-05-05 02:32 35.37854 -81.07076 5004 ft 277 kts 112°
2026-05-05 02:33 35.37250 -81.04848 4687 ft 274 kts 112°
2026-05-05 02:33 35.36655 -81.02652 4293 ft 265 kts 112°
2026-05-05 02:33 35.36101 -81.00574 4151 ft 249 kts 112°
2026-05-05 02:33 35.35482 -80.98645 3883 ft 236 kts 122°
2026-05-05 02:34 35.34612 -80.97078 3725 ft 214 kts 141°
2026-05-05 02:34 35.33385 -80.96164 3220 ft 204 kts 171°
2026-05-05 02:34 35.31992 -80.96035 2835 ft 199 kts 181°
2026-05-05 02:34 35.30590 -80.95976 2379 ft 201 kts 179°
2026-05-05 02:35 35.29242 -80.95874 2077 ft 185 kts 177°
2026-05-05 02:35 35.28027 -80.95772 1816 ft 167 kts 176°
2026-05-05 02:35 35.26910 -80.95675 1608 ft 157 kts 177°
2026-05-05 02:35 35.25843 -80.95585 1406 ft 152 kts 177°
2026-05-05 02:36 35.24798 -80.95493 1201 ft 150 kts 177°
2026-05-05 02:36 35.23760 -80.95399 998 ft 149 kts 178°
2026-05-05 02:36 35.22722 -80.95316 805 ft 149 kts 175°
2026-05-05 02:36 35.21723 -80.95216 743 ft 132 kts 187°
2026-05-05 02:37 35.21109 -80.95173 736 ft 48 kts 179°
2026-05-05 02:37 35.20876 -80.95160 737 ft 30 kts 174°
2026-05-05 02:37 35.20679 -80.95096 738 ft 29 kts 152°
2026-05-05 02:37 35.20559 -80.94983 734 ft 12 kts 111°